Time,TemperatureF,DewpointF,PressureIn,WindDirection,WindDirectionDegrees,WindSpeedMPH,WindSpeedGustMPH,Humidity,HourlyPrecipIn,Conditions,Clouds,dailyrainin,SoftwareType,DateUTC
2013-12-12 00:22:00,-1.0,-13.0,29.80,North,2,0.0,2.0,56,0.00,,,0.00,,2013-12-12 06:22:00,
2013-12-12 00:52:00,-1.0,-13.0,29.78,North,2,0.0,0.0,56,0.00,,,0.00,,2013-12-12 06:52:00,
2013-12-12 01:22:00,-2.0,-14.0,29.78,North,2,0.0,0.0,56,0.00,,,0.00,,2013-12-12 07:22:00,
2013-12-12 01:42:00,-3.0,-15.0,29.78,North,1,0.0,0.0,56,0.00,,,0.00,,2013-12-12 07:42:00,
2013-12-12 01:52:00,-3.0,-14.0,29.78,North,1,0.0,0.0,57,0.00,,,0.00,,2013-12-12 07:52:00,
2013-12-12 02:22:00,-3.0,-14.0,29.77,North,1,0.0,0.0,57,0.00,,,0.00,,2013-12-12 08:22:00,
2013-12-12 02:52:00,-3.0,-14.0,29.75,North,1,1.0,3.0,59,0.00,,,0.00,,2013-12-12 08:52:00,
2013-12-12 03:22:00,-2.0,-13.0,29.76,North,2,0.0,2.0,59,0.00,,,0.00,,2013-12-12 09:22:00,
2013-12-12 03:43:00,-3.0,-14.0,29.75,North,1,0.0,2.0,59,0.00,,,0.00,,2013-12-12 09:43:00,
2013-12-12 03:54:00,-3.0,-14.0,29.75,North,1,0.0,1.0,59,0.00,,,0.00,,2013-12-12 09:54:00,
2013-12-12 04:23:00,-4.0,-15.0,29.74,NE,48,0.0,3.0,58,0.00,,,0.00,,2013-12-12 10:23:00,
2013-12-12 04:43:00,-4.0,-15.0,29.73,ENE,57,0.0,2.0,59,0.00,,,0.00,,2013-12-12 10:43:00,
2013-12-12 04:53:00,-5.0,-16.0,29.73,ENE,78,0.0,2.0,59,0.00,,,0.00,,2013-12-12 10:53:00,
2013-12-12 05:23:00,-5.0,-15.0,29.72,ESE,103,0.0,3.0,60,0.00,,,0.00,,2013-12-12 11:23:00,
2013-12-12 05:53:00,-4.0,-14.0,29.71,ESE,105,0.0,2.0,60,0.00,,,0.00,,2013-12-12 11:53:00,
2013-12-12 06:22:00,-3.0,-13.0,29.70,ESE,105,0.0,2.0,61,0.00,,,0.00,,2013-12-12 12:22:00,
2013-12-12 06:42:00,-2.0,-12.0,29.68,ESE,105,0.0,3.0,61,0.00,,,0.00,,2013-12-12 12:42:00,
2013-12-12 06:52:00,-2.0,-12.0,29.68,ESE,105,0.0,3.0,61,0.00,,,0.00,,2013-12-12 12:52:00,
2013-12-12 07:22:00,-1.0,-11.0,29.66,WSW,250,0.0,3.0,61,0.00,,,0.00,,2013-12-12 13:22:00,
2013-12-12 07:42:00,0.0,-10.0,29.65,SSW,200,1.0,3.0,62,0.00,,,0.00,,2013-12-12 13:42:00,
2013-12-12 07:52:00,1.0,-9.0,29.65,SSW,200,1.0,5.0,61,0.00,,,0.00,,2013-12-12 13:52:00,
2013-12-12 08:22:00,3.0,-8.0,29.65,SSW,195,1.0,5.0,60,0.00,,,0.00,,2013-12-12 14:22:00,
2013-12-12 08:52:00,4.0,-7.0,29.62,South,176,2.0,5.0,59,0.00,,,0.00,,2013-12-12 14:52:00,
2013-12-12 09:22:00,5.0,-7.0,29.61,South,174,2.0,5.0,57,0.00,,,0.00,,2013-12-12 15:22:00,
2013-12-12 09:53:00,7.0,-5.0,29.62,SSE,166,1.0,3.0,56,0.00,,,0.00,,2013-12-12 15:53:00,
2013-12-12 10:23:00,8.0,-4.0,29.63,South,183,2.0,5.0,56,0.00,,,0.00,,2013-12-12 16:23:00,
2013-12-12 10:53:00,11.0,-2.0,29.63,South,173,2.0,3.0,54,0.00,,,0.00,,2013-12-12 16:53:00,
2013-12-12 11:23:00,12.0,-2.0,29.62,SW,215,1.0,5.0,53,0.00,,,0.00,,2013-12-12 17:23:00,
2013-12-12 11:53:00,12.0,-2.0,29.61,South,182,2.0,5.0,53,0.00,,,0.00,,2013-12-12 17:53:00,
2013-12-12 12:22:00,14.0,0.0,29.59,SSW,203,1.0,3.0,54,0.00,,,0.00,,2013-12-12 18:22:00,
2013-12-12 12:52:00,15.0,1.0,29.58,South,186,1.0,7.0,54,0.00,,,0.00,,2013-12-12 18:52:00,
2013-12-12 13:21:00,16.0,2.0,29.57,South,172,1.0,3.0,54,0.00,,,0.00,,2013-12-12 19:21:00,
2013-12-12 13:52:00,17.0,3.0,29.57,South,174,2.0,5.0,54,0.00,,,0.00,,2013-12-12 19:52:00,
2013-12-12 14:21:00,17.0,4.0,29.56,SSW,208,1.0,5.0,55,0.00,,,0.00,,2013-12-12 20:21:00,
2013-12-12 14:52:00,17.0,4.0,29.55,South,177,1.0,3.0,55,0.00,,,0.00,,2013-12-12 20:52:00,
2013-12-12 15:21:00,17.0,4.0,29.55,South,188,1.0,5.0,56,0.00,,,0.00,,2013-12-12 21:21:00,
2013-12-12 15:53:00,17.0,4.0,29.54,South,183,1.0,3.0,56,0.00,,,0.00,,2013-12-12 21:53:00,
2013-12-12 16:22:00,15.0,3.0,29.54,South,181,1.0,3.0,57,0.00,,,0.00,,2013-12-12 22:22:00,
2013-12-12 16:53:00,15.0,3.0,29.55,South,181,0.0,2.0,59,0.00,,,0.00,,2013-12-12 22:53:00,
2013-12-12 17:22:00,15.0,4.0,29.54,WNW,294,0.0,3.0,60,0.00,,,0.00,,2013-12-12 23:22:00,
2013-12-12 17:53:00,14.0,3.0,29.53,SW,232,1.0,3.0,61,0.00,,,0.00,,2013-12-12 23:53:00,
2013-12-12 18:22:00,14.0,3.0,29.52,SW,232,0.0,2.0,62,0.00,,,0.00,,2013-12-13 00:22:00,
2013-12-12 18:52:00,15.0,4.0,29.52,SW,232,0.0,3.0,62,0.00,,,0.00,,2013-12-13 00:52:00,
2013-12-12 19:21:00,15.0,4.0,29.52,SW,232,1.0,2.0,62,0.00,,,0.00,,2013-12-13 01:21:00,
2013-12-12 19:52:00,15.0,5.0,29.52,SW,232,0.0,2.0,64,0.00,,,0.00,,2013-12-13 01:52:00,
2013-12-12 20:22:00,15.0,5.0,29.52,SW,232,1.0,2.0,64,0.00,,,0.00,,2013-12-13 02:22:00,
2013-12-12 20:52:00,14.0,4.0,29.51,South,190,1.0,3.0,64,0.00,,,0.00,,2013-12-13 02:52:00,
2013-12-12 21:22:00,14.0,4.0,29.50,South,190,0.0,3.0,64,0.00,,,0.00,,2013-12-13 03:22:00,
2013-12-12 21:53:00,15.0,5.0,29.50,South,191,0.0,1.0,65,0.00,,,0.00,,2013-12-13 03:53:00,
2013-12-12 22:22:00,15.0,5.0,29.49,South,191,0.0,2.0,65,0.00,,,0.00,,2013-12-13 04:22:00,
2013-12-12 22:52:00,15.0,5.0,29.48,South,191,0.0,1.0,64,0.00,,,0.00,,2013-12-13 04:52:00,
2013-12-12 23:22:00,14.0,4.0,29.47,South,191,0.0,1.0,65,0.00,,,0.00,,2013-12-13 05:22:00,
2013-12-12 23:52:00,14.0,4.0,29.47,South,191,0.0,1.0,65,0.00,,,0.00,,2013-12-13 05:52:00,